WGS F4 (USA 233)

Last updated on Jan. 26, 2020, 4:40 a.m. UTC

1 38070U 12003A   20025.58521699 -.00000222  00000-0  00000-0 0  9995
2 38070   0.0139  64.6671 0000225  56.3611 302.3681  1.00269729 20735
UTC
Height (km)
Latitude
Longitude
Inclination
Orbital Period
UTC large
Height (km)
Speed (km/s)
/
Latitude / Longitude
Inclination (degrees)
Orbital Period (minutes)
Azimuth
Elevation
Range (km)
Doppler Factor
iOS Compass Heading
iOS Angle

Next 30 passes for location: Hong Kong

Rise time Rise Azimuth (degrees) Set time Set Azimuth (degrees) Duration Max altitude (degrees)

No matching passes for this satellites